CWLEESTJE Weather Reports


Display with metric or nautical units.
time (UTC)temp
F
wind
direction
speed
MPH
gust
MPH
rain 1hr
in
rain 24hr
in
rain mn
in
humidity
%
barometer
mb
20260906084523 64 152 8.0 11.0 0.00 0.00 0.00 79
20260906083534 63 159 5.0 11.0 0.00 0.00 0.00 80
20260906082532 63 134 7.0 10.0 0.00 0.00 0.00 81
20260906081543 62 142 7.0 11.0 0.00 0.00 0.00 83
20260906080533 61 128 6.0 9.0 0.00 0.00 0.00 85
20260906075532 60 126 7.0 10.0 0.00 0.00 0.00 85
20260906074544 60 134 6.0 9.0 0.00 0.00 0.00 86
20260906073544 59 147 5.0 9.0 0.00 0.00 0.00 87
20260906072531 58 137 4.0 6.0 0.00 0.00 0.00 89
20260906071532 58 117 4.0 7.0 0.00 0.00 0.00 89
20260906070543 57 119 4.0 9.0 0.00 0.00 0.00 89
20260906065552 57 111 6.0 8.0 0.00 0.00 0.00 90
20260906064543 56 103 4.0 7.0 0.00 0.00 0.00 91
20260906063528 55 98 5.0 6.0 0.00 0.00 0.00 92
20260906062542 54 94 4.0 6.0 0.00 0.00 0.00 92
20260906061526 53 86 4.0 5.0 0.00 0.00 0.00 92
20260906060527 52 81 3.0 5.0 0.00 0.00 0.00 93
20260906055521 51 80 3.0 5.0 0.00 0.00 0.00 92
20260906054525 50 80 4.0 5.0 0.00 0.00 0.00 92
20260906053518 50 80 5.0 5.0 0.00 0.00 0.00 91
20260906052523 50 80 3.0 4.0 0.00 0.00 0.00 91
20260906051557 50 79 3.0 5.0 0.00 0.00 0.00 91
20260906050518 50 79 4.0 5.0 0.00 0.00 0.00 92
20260906045527 50 78 2.0 3.0 0.00 0.00 0.00 92
20260906044540 50 78 2.0 3.0 0.00 0.00 0.00 91
20260906043523 50 78 2.0 5.0 0.00 0.00 0.00 92
20260906042528 50 78 3.0 5.0 0.00 0.00 0.00 92
20260906041540 50 77 4.0 5.0 0.00 0.00 0.00 92
20260906040532 50 38 2.0 4.0 0.00 0.00 0.00 91
20260906035604 50 38 0.0 2.0 0.00 0.00 0.00 91
20260906034523 50 38 1.0 4.0 0.00 0.00 0.00 91
20260906033527 50 38 2.0 3.0 0.00 0.00 0.00 91
20260906032519 50 38 1.0 4.0 0.00 0.00 0.00 91
20260906031524 50 38 2.0 5.0 0.00 0.00 0.00 91
20260906030537 51 5 0.0 0.0 0.00 0.00 0.00 91
20260906025520 50 5 0.0 0.0 0.00 0.00 0.00 91
20260906024533 50 5 0.0 0.0 0.00 0.00 0.00 92
20260906023537 50 355 0.0 0.0 0.00 0.00 0.00 91
20260906022518 50 355 0.0 0.0 0.00 0.00 0.00 91
20260906021532 50 355 0.0 0.0 0.00 0.00 0.00 91
20260906020544 50 355 0.0 0.0 0.00 0.00 0.00 91
20260906015549 50 355 0.0 0.0 0.00 0.00 0.00 91
20260906014521 50 355 0.0 0.0 0.00 0.00 0.00 91
20260906013524 50 355 0.0 0.0 0.00 0.00 0.00 90
20260906012537 50 355 0.0 0.0 0.00 0.00 0.00 90
20260906011521 50 355 0.0 0.0 0.00 0.00 0.00 90
20260906010530 50 355 0.0 0.0 0.00 0.00 0.00 90
20260906005535 50 355 0.0 0.0 0.00 0.00 0.00 90
20260906004519 51 355 0.0 0.0 0.00 0.00 0.00 89
20260906003532 51 355 0.0 5.0 0.00 0.00 0.00 90
20260906002544 52 355 4.0 5.0 0.00 0.00 0.00 90
20260906001528 51 355 4.0 5.0 0.00 0.00 0.00 91
20260906000533 51 355 1.0 2.0 0.00 0.00 0.00 90
20260905235526 51 355 0.0 5.0 0.00 0.00 0.00 90
20260905234525 51 344 1.0 2.0 0.00 0.00 0.00 90
20260905233537 52 344 0.0 2.0 0.00 0.00 0.00 90
20260905232522 51 344 2.0 4.0 0.00 0.00 0.00 90
20260905231535 51 344 1.0 2.0 0.00 0.00 0.00 89
20260905230518 51 344 0.0 2.0 0.00 0.00 0.00 89
20260905225531 52 344 0.0 0.0 0.00 0.00 0.00 89
20260905224535 51 344 0.0 0.0 0.00 0.00 0.00 89
20260905223518 52 344 0.0 0.0 0.00 0.00 0.00 89
20260905222527 52 344 0.0 0.0 0.00 0.00 0.00 89
20260905221541 52 344 0.0 0.0 0.00 0.00 0.00 88
20260905220526 53 344 1.0 2.0 0.00 0.00 0.00 89
20260905215530 53 344 0.0 2.0 0.00 0.00 0.00 88
20260905214523 53 344 0.0 2.0 0.00 0.00 0.00 88
20260905213556 53 344 2.0 2.0 0.00 0.00 0.00 89
20260905212537 53 344 0.0 2.0 0.00 0.00 0.00 88
20260905211546 54 344 0.0 0.0 0.00 0.00 0.00 87
20260905210530 54 344 0.0 0.0 0.00 0.00 0.00 87
20260905205543 54 344 0.0 4.0 0.00 0.00 0.00 87
20260905204526 54 344 0.0 2.0 0.00 0.00 0.00 87
20260905203530 55 344 0.0 2.0 0.00 0.00 0.00 86
20260905202542 55 344 2.0 3.0 0.00 0.00 0.00 86
20260905201534 55 344 0.0 0.0 0.00 0.00 0.00 85
20260905200534 56 344 0.0 2.0 0.00 0.00 0.00 85
20260905195546 56 344 2.0 2.0 0.00 0.00 0.00 84
20260905194529 57 344 0.0 0.0 0.00 0.00 0.00 82
20260905193541 57 344 0.0 0.0 0.00 0.00 0.00 81
20260905192525 58 344 0.0 0.0 0.00 0.00 0.00 80
20260905191529 59 344 1.0 4.0 0.00 0.00 0.00 78
20260905190521 60 344 1.0 2.0 0.00 0.00 0.00 77
20260905185525 61 344 0.0 0.0 0.00 0.00 0.00 76
20260905184533 61 344 0.0 4.0 0.00 0.00 0.00 75
20260905183537 62 344 2.0 4.0 0.00 0.00 0.00 75
20260905182549 63 344 1.0 5.0 0.00 0.00 0.00 73
20260905181541 63 342 3.0 5.0 0.00 0.00 0.00 73
20260905180524 64 339 3.0 5.0 0.00 0.00 0.00 72
20260905175536 65 337 3.0 6.0 0.00 0.00 0.00 70
20260905174540 65 337 2.0 8.0 0.00 0.00 0.00 68
20260905173529 66 347 4.0 7.0 0.00 0.00 0.00 66
20260905172542 66 340 4.0 9.0 0.00 0.00 0.00 65
20260905171527 67 355 5.0 9.0 0.00 0.00 0.00 65
20260905170530 68 341 6.0 10.0 0.00 0.00 0.00 63
20260905165522 68 323 4.0 12.0 0.00 0.00 0.00 65
20260905164526 68 344 5.0 10.0 0.00 0.00 0.00 65
20260905163540 68 319 9.0 15.0 0.00 0.00 0.00 63
20260905162529 69 341 7.0 12.0 0.00 0.00 0.00 65
20260905161532 69 317 7.0 14.0 0.00 0.00 0.00 64
20260905160546 69 331 6.0 15.0 0.00 0.00 0.00 62
20260905155528 70 305 10.0 16.0 0.00 0.00 0.00 63
20260905154541 70 5 9.0 18.0 0.00 0.00 0.00 63
20260905153524 70 326 6.0 13.0 0.00 0.00 0.00 65
20260905152528 70 5 7.0 15.0 0.00 0.00 0.00 66
20260905151521 71 325 9.0 15.0 0.00 0.00 0.00 64
20260905150521 72 326 6.0 12.0 0.00 0.00 0.00 63
20260905145535 71 292 9.0 15.0 0.00 0.00 0.00 65
20260905144548 71 319 10.0 16.0 0.00 0.00 0.00 64
20260905143531 71 317 9.0 16.0 0.00 0.00 0.00 64
20260905142534 72 337 8.0 14.0 0.00 0.00 0.00 65
20260905141526 72 295 12.0 15.0 0.00 0.00 0.00 63
20260905140531 71 282 10.0 16.0 0.00 0.00 0.00 63
20260905135543 71 281 9.0 16.0 0.00 0.00 0.00 65
20260905134521 71 294 8.0 20.0 0.00 0.00 0.00 66
20260905133533 70 296 11.0 21.0 0.00 0.00 0.00 66
20260905132537 70 302 8.0 15.0 0.00 0.00 0.00 68
20260905131551 70 285 13.0 18.0 0.00 0.00 0.00 67
20260905130534 71 284 12.0 15.0 0.00 0.00 0.00 69
20260905125527 70 309 11.0 18.0 0.00 0.12 0.00 67
20260905124531 69 304 12.0 16.0 0.00 0.12 0.00 69
20260905123540 69 298 11.0 16.0 0.00 0.12 0.00 68
20260905122522 69 291 9.0 18.0 0.00 0.12 0.00 68
20260905121557 69 297 12.0 16.0 0.00 0.12 0.00 67
20260905120549 69 298 8.0 19.0 0.00 0.12 0.00 71
20260905115541 70 309 9.0 16.0 0.00 0.12 0.00 69
20260905114525 69 296 8.0 16.0 0.00 0.12 0.00 71
20260905113529 69 313 9.0 16.0 0.00 0.12 0.00 71
20260905112538 69 286 11.0 18.0 0.00 0.12 0.00 70
20260905111551 68 309 12.0 18.0 0.00 0.12 0.00 70
20260905110533 70 5 8.0 16.0 0.00 0.12 0.00 70
20260905105546 69 309 9.0 20.0 0.00 0.12 0.00 71
20260905104529 68 296 11.0 18.0 0.00 0.12 0.00 72
20260905103542 68 288 11.0 16.0 0.00 0.12 0.00 74
20260905102547 68 282 10.0 16.0 0.00 0.12 0.00 72
20260905101534 68 319 10.0 16.0 0.00 0.12 0.00 73
20260905100608 67 327 9.0 19.0 0.00 0.12 0.00 73
20260905095531 68 315 11.0 18.0 0.00 0.12 0.00 73
20260905094544 67 304 11.0 16.0 0.00 0.12 0.00 76
20260905093548 66 303 7.0 15.0 0.00 0.12 0.00 77
20260905092540 66 312 8.0 15.0 0.00 0.12 0.00 75
20260905091525 67 289 10.0 18.0 0.00 0.12 0.00 77
20260905090531 66 298 12.0 16.0 0.00 0.12 0.00 81
20260905085605 64 294 10.0 18.0 0.00 0.12 0.00 82